Time,TemperatureF,DewpointF,PressureIn,WindDirection,WindDirectionDegrees,WindSpeedMPH,WindSpeedGustMPH,Humidity,HourlyPrecipIn,Conditions,Clouds,dailyrainin,SolarRadiationWatts/m^2,SoftwareType,DateUTC
2013-06-05 00:02:00,53.0,22.0,-100.00,SE,136,5.0,13.0,29,0.00,,,0.00,0.000000,,2013-06-05 05:02:00,
2013-06-05 00:23:00,51.0,24.0,-100.00,ESE,107,3.0,11.0,35,0.00,,,0.00,0.000000,,2013-06-05 05:23:00,
2013-06-05 00:32:00,51.0,24.0,-100.00,ESE,107,3.0,11.0,35,0.00,,,0.00,0.000000,,2013-06-05 05:32:00,
2013-06-05 00:42:00,51.0,24.0,-100.00,ESE,107,3.0,11.0,35,0.00,,,0.00,0.000000,,2013-06-05 05:42:00,
2013-06-05 00:52:00,51.0,24.0,-100.00,ESE,107,3.0,11.0,35,0.00,,,0.00,0.000000,,2013-06-05 05:52:00,
2013-06-05 01:02:00,51.0,24.0,-100.00,ESE,107,3.0,11.0,35,0.00,,,0.00,0.000000,,2013-06-05 06:02:00,
2013-06-05 01:22:00,49.0,26.0,-100.00,East,101,3.0,7.0,40,0.00,,,0.00,0.000000,,2013-06-05 06:22:00,
2013-06-05 01:32:00,49.0,26.0,-100.00,East,101,3.0,7.0,40,0.00,,,0.00,0.000000,,2013-06-05 06:32:00,
2013-06-05 01:42:00,49.0,26.0,-100.00,East,101,3.0,7.0,40,0.00,,,0.00,0.000000,,2013-06-05 06:42:00,
2013-06-05 01:52:00,49.0,26.0,-100.00,East,101,3.0,7.0,40,0.00,,,0.00,0.000000,,2013-06-05 06:52:00,
2013-06-05 02:02:00,49.0,26.0,-100.00,East,101,3.0,7.0,40,0.00,,,0.00,0.000000,,2013-06-05 07:02:00,
2013-06-05 02:22:00,47.0,29.0,-100.00,ENE,69,3.0,7.0,50,0.00,,,0.00,0.000000,,2013-06-05 07:22:00,
2013-06-05 02:32:00,47.0,29.0,-100.00,ENE,69,3.0,7.0,50,0.00,,,0.00,0.000000,,2013-06-05 07:32:00,
2013-06-05 02:42:00,47.0,29.0,-100.00,ENE,69,3.0,7.0,50,0.00,,,0.00,0.000000,,2013-06-05 07:42:00,
2013-06-05 02:52:00,47.0,29.0,-100.00,ENE,69,3.0,7.0,50,0.00,,,0.00,0.000000,,2013-06-05 07:52:00,
2013-06-05 03:02:00,47.0,29.0,-100.00,ENE,69,3.0,7.0,50,0.00,,,0.00,0.000000,,2013-06-05 08:02:00,
2013-06-05 03:22:00,47.0,30.0,-100.00,ENE,72,4.0,6.0,52,0.00,,,0.00,0.000000,,2013-06-05 08:22:00,
2013-06-05 03:32:00,47.0,30.0,-100.00,ENE,72,4.0,6.0,52,0.00,,,0.00,0.000000,,2013-06-05 08:32:00,
2013-06-05 03:42:00,47.0,30.0,-100.00,ENE,72,4.0,6.0,52,0.00,,,0.00,0.000000,,2013-06-05 08:42:00,
2013-06-05 03:52:00,47.0,30.0,-100.00,ENE,72,4.0,6.0,52,0.00,,,0.00,0.000000,,2013-06-05 08:52:00,
2013-06-05 04:02:00,47.0,30.0,-100.00,ENE,72,4.0,6.0,52,0.00,,,0.00,0.000000,,2013-06-05 09:02:00,
2013-06-05 04:22:00,46.0,31.0,-100.00,ENE,78,4.0,7.0,56,0.00,,,0.00,0.000000,,2013-06-05 09:22:00,
2013-06-05 04:33:00,46.0,31.0,-100.00,ENE,78,4.0,7.0,56,0.00,,,0.00,0.000000,,2013-06-05 09:33:00,
2013-06-05 04:43:00,46.0,31.0,-100.00,ENE,78,4.0,7.0,56,0.00,,,0.00,0.000000,,2013-06-05 09:43:00,
2013-06-05 04:53:00,46.0,31.0,-100.00,ENE,78,4.0,7.0,56,0.00,,,0.00,0.000000,,2013-06-05 09:53:00,
2013-06-05 05:03:00,46.0,31.0,-100.00,ENE,78,4.0,7.0,56,0.00,,,0.00,0.000000,,2013-06-05 10:03:00,
2013-06-05 05:23:00,45.0,32.0,-100.00,East,100,3.0,7.0,59,0.00,,,0.00,0.000000,,2013-06-05 10:23:00,
2013-06-05 05:33:00,45.0,32.0,-100.00,East,100,3.0,7.0,59,0.00,,,0.00,0.000000,,2013-06-05 10:33:00,
2013-06-05 05:43:00,45.0,32.0,-100.00,East,100,3.0,7.0,59,0.00,,,0.00,0.000000,,2013-06-05 10:43:00,
2013-06-05 05:53:00,45.0,32.0,-100.00,East,100,3.0,7.0,59,0.00,,,0.00,0.000000,,2013-06-05 10:53:00,
2013-06-05 06:02:00,45.0,32.0,-100.00,East,100,3.0,7.0,59,0.00,,,0.00,0.000000,,2013-06-05 11:02:00,
2013-06-05 06:22:00,46.0,35.0,-100.00,East,100,4.0,6.0,65,0.00,,,0.00,19.000000,,2013-06-05 11:22:00,
2013-06-05 06:33:00,46.0,35.0,-100.00,East,100,4.0,6.0,65,0.00,,,0.00,19.000000,,2013-06-05 11:33:00,
2013-06-05 06:42:00,46.0,35.0,-100.00,East,100,4.0,6.0,65,0.00,,,0.00,19.000000,,2013-06-05 11:42:00,
2013-06-05 06:52:00,46.0,35.0,-100.00,East,100,4.0,6.0,65,0.00,,,0.00,19.000000,,2013-06-05 11:52:00,
2013-06-05 07:02:00,46.0,35.0,-100.00,East,100,4.0,6.0,65,0.00,,,0.00,19.000000,,2013-06-05 12:02:00,
2013-06-05 07:22:00,48.0,36.0,-100.00,East,86,4.0,7.0,63,0.00,,,0.00,70.000000,,2013-06-05 12:22:00,
2013-06-05 07:32:00,48.0,36.0,-100.00,East,86,4.0,7.0,63,0.00,,,0.00,70.000000,,2013-06-05 12:32:00,
2013-06-05 07:44:00,48.0,36.0,-100.00,East,86,4.0,7.0,63,0.00,,,0.00,70.000000,,2013-06-05 12:44:00,
2013-06-05 07:52:00,48.0,36.0,-100.00,East,86,4.0,7.0,63,0.00,,,0.00,70.000000,,2013-06-05 12:52:00,
2013-06-05 08:02:00,48.0,36.0,-100.00,East,86,4.0,7.0,63,0.00,,,0.00,70.000000,,2013-06-05 13:02:00,
2013-06-05 08:22:00,53.0,41.0,-100.00,East,92,5.0,9.0,64,0.00,,,0.00,220.000000,,2013-06-05 13:22:00,
2013-06-05 08:33:00,53.0,41.0,-100.00,East,92,5.0,9.0,64,0.00,,,0.00,220.000000,,2013-06-05 13:33:00,
2013-06-05 08:42:00,53.0,41.0,-100.00,East,92,5.0,9.0,64,0.00,,,0.00,220.000000,,2013-06-05 13:42:00,
2013-06-05 08:52:00,53.0,41.0,-100.00,East,92,5.0,9.0,64,0.00,,,0.00,220.000000,,2013-06-05 13:52:00,
2013-06-05 09:02:00,53.0,41.0,-100.00,East,92,5.0,9.0,64,0.00,,,0.00,220.000000,,2013-06-05 14:02:00,
2013-06-05 09:22:00,54.0,43.0,-100.00,ESE,117,6.0,12.0,67,0.00,,,0.00,259.000000,,2013-06-05 14:22:00,
2013-06-05 09:32:00,54.0,43.0,-100.00,ESE,117,6.0,12.0,67,0.00,,,0.00,259.000000,,2013-06-05 14:32:00,
2013-06-05 09:42:00,54.0,43.0,-100.00,ESE,117,6.0,12.0,67,0.00,,,0.00,259.000000,,2013-06-05 14:42:00,
2013-06-05 09:52:00,54.0,43.0,-100.00,ESE,117,6.0,12.0,67,0.00,,,0.00,259.000000,,2013-06-05 14:52:00,
2013-06-05 10:02:00,54.0,43.0,-100.00,ESE,117,6.0,12.0,67,0.00,,,0.00,259.000000,,2013-06-05 15:02:00,
2013-06-05 10:23:00,57.0,45.0,-100.00,ESE,109,7.0,15.0,63,0.00,,,0.00,388.000000,,2013-06-05 15:23:00,
2013-06-05 10:33:00,57.0,45.0,-100.00,ESE,109,7.0,15.0,63,0.00,,,0.00,388.000000,,2013-06-05 15:33:00,
2013-06-05 10:43:00,57.0,45.0,-100.00,ESE,109,7.0,15.0,63,0.00,,,0.00,388.000000,,2013-06-05 15:43:00,
2013-06-05 10:53:00,57.0,45.0,-100.00,ESE,109,7.0,15.0,63,0.00,,,0.00,388.000000,,2013-06-05 15:53:00,
2013-06-05 11:03:00,57.0,45.0,-100.00,ESE,109,7.0,15.0,63,0.00,,,0.00,388.000000,,2013-06-05 16:03:00,
2013-06-05 11:23:00,56.0,42.0,-100.00,ESE,111,6.0,14.0,59,0.00,,,0.00,354.000000,,2013-06-05 16:23:00,
2013-06-05 11:32:00,56.0,42.0,-100.00,ESE,111,6.0,14.0,59,0.00,,,0.00,354.000000,,2013-06-05 16:32:00,
2013-06-05 11:42:00,56.0,42.0,-100.00,ESE,111,6.0,14.0,59,0.00,,,0.00,354.000000,,2013-06-05 16:42:00,
2013-06-05 11:54:00,56.0,42.0,-100.00,ESE,111,6.0,14.0,59,0.00,,,0.00,354.000000,,2013-06-05 16:54:00,
2013-06-05 12:02:00,56.0,42.0,-100.00,ESE,111,6.0,14.0,59,0.00,,,0.00,354.000000,,2013-06-05 17:02:00,
2013-06-05 12:22:00,53.0,40.0,-100.00,ESE,121,8.0,16.0,62,0.00,,,0.00,133.000000,,2013-06-05 17:22:00,
2013-06-05 12:33:00,53.0,40.0,-100.00,ESE,121,8.0,16.0,62,0.00,,,0.00,133.000000,,2013-06-05 17:33:00,
2013-06-05 12:43:00,53.0,40.0,-100.00,ESE,121,8.0,16.0,62,0.00,,,0.00,133.000000,,2013-06-05 17:43:00,
2013-06-05 12:52:00,53.0,40.0,-100.00,ESE,121,8.0,16.0,62,0.00,,,0.00,133.000000,,2013-06-05 17:52:00,
2013-06-05 13:02:00,53.0,40.0,-100.00,ESE,121,8.0,16.0,62,0.00,,,0.00,133.000000,,2013-06-05 18:02:00,
2013-06-05 13:23:00,51.0,47.0,-100.00,ESE,110,6.0,13.0,87,0.01,,,0.01,135.000000,,2013-06-05 18:23:00,
2013-06-05 13:32:00,51.0,47.0,-100.00,ESE,110,6.0,13.0,87,0.01,,,0.01,135.000000,,2013-06-05 18:32:00,
2013-06-05 13:42:00,51.0,47.0,-100.00,ESE,110,6.0,13.0,87,0.01,,,0.01,135.000000,,2013-06-05 18:42:00,
2013-06-05 13:52:00,51.0,47.0,-100.00,ESE,110,6.0,13.0,87,0.01,,,0.01,135.000000,,2013-06-05 18:52:00,
2013-06-05 14:02:00,51.0,47.0,-100.00,ESE,110,6.0,13.0,87,0.01,,,0.01,135.000000,,2013-06-05 19:02:00,
2013-06-05 14:23:00,50.0,47.0,-100.00,East,89,7.0,14.0,88,0.02,,,0.03,209.000000,,2013-06-05 19:23:00,
2013-06-05 14:32:00,50.0,47.0,-100.00,East,89,7.0,14.0,88,0.02,,,0.03,209.000000,,2013-06-05 19:32:00,
2013-06-05 14:42:00,50.0,47.0,-100.00,East,89,7.0,14.0,88,0.02,,,0.03,209.000000,,2013-06-05 19:42:00,
2013-06-05 14:53:00,50.0,47.0,-100.00,East,89,7.0,14.0,88,0.02,,,0.03,209.000000,,2013-06-05 19:53:00,
2013-06-05 15:02:00,50.0,47.0,-100.00,East,89,7.0,14.0,88,0.02,,,0.03,209.000000,,2013-06-05 20:02:00,
2013-06-05 15:23:00,50.0,46.0,-100.00,East,89,6.0,13.0,86,0.03,,,0.06,224.000000,,2013-06-05 20:23:00,
2013-06-05 15:32:00,50.0,46.0,-100.00,East,89,6.0,13.0,86,0.03,,,0.06,224.000000,,2013-06-05 20:32:00,
2013-06-05 15:42:00,50.0,46.0,-100.00,East,89,6.0,13.0,86,0.03,,,0.06,224.000000,,2013-06-05 20:42:00,
2013-06-05 15:52:00,50.0,46.0,-100.00,East,89,6.0,13.0,86,0.03,,,0.06,224.000000,,2013-06-05 20:52:00,
2013-06-05 16:02:00,50.0,46.0,-100.00,East,89,6.0,13.0,86,0.03,,,0.06,224.000000,,2013-06-05 21:02:00,
2013-06-05 16:23:00,51.0,46.0,-100.00,ENE,68,5.0,12.0,83,0.01,,,0.07,326.000000,,2013-06-05 21:23:00,
2013-06-05 16:33:00,51.0,46.0,-100.00,ENE,68,5.0,12.0,83,0.01,,,0.07,326.000000,,2013-06-05 21:33:00,
2013-06-05 16:43:00,51.0,46.0,-100.00,ENE,68,5.0,12.0,83,0.01,,,0.07,326.000000,,2013-06-05 21:43:00,
2013-06-05 16:53:00,51.0,46.0,-100.00,ENE,68,5.0,12.0,83,0.01,,,0.07,326.000000,,2013-06-05 21:53:00,
2013-06-05 17:02:00,51.0,46.0,-100.00,ENE,68,5.0,12.0,83,0.01,,,0.07,326.000000,,2013-06-05 22:02:00,
2013-06-05 17:22:00,54.0,47.0,-100.00,East,88,4.0,11.0,77,0.00,,,0.07,303.000000,,2013-06-05 22:22:00,
2013-06-05 17:33:00,54.0,47.0,-100.00,East,88,4.0,11.0,77,0.00,,,0.07,303.000000,,2013-06-05 22:33:00,
2013-06-05 17:43:00,54.0,47.0,-100.00,East,88,4.0,11.0,77,0.00,,,0.07,303.000000,,2013-06-05 22:43:00,
2013-06-05 17:53:00,54.0,47.0,-100.00,East,88,4.0,11.0,77,0.00,,,0.07,303.000000,,2013-06-05 22:53:00,
2013-06-05 18:02:00,54.0,47.0,-100.00,East,88,4.0,11.0,77,0.00,,,0.07,303.000000,,2013-06-05 23:02:00,
2013-06-05 18:22:00,55.0,44.0,-100.00,East,91,5.0,10.0,67,0.00,,,0.07,239.000000,,2013-06-05 23:22:00,
2013-06-05 18:32:00,55.0,44.0,-100.00,East,91,5.0,10.0,67,0.00,,,0.07,239.000000,,2013-06-05 23:32:00,
2013-06-05 18:42:00,55.0,44.0,-100.00,East,91,5.0,10.0,67,0.00,,,0.07,239.000000,,2013-06-05 23:42:00,
2013-06-05 18:53:00,55.0,44.0,-100.00,East,91,5.0,10.0,67,0.00,,,0.07,239.000000,,2013-06-05 23:53:00,
2013-06-05 19:02:00,55.0,44.0,-100.00,East,91,5.0,10.0,67,0.00,,,0.07,239.000000,,2013-06-06 00:02:00,
2013-06-05 19:22:00,55.0,40.0,-100.00,East,84,6.0,12.0,57,0.00,,,0.07,168.000000,,2013-06-06 00:22:00,
2013-06-05 19:32:00,55.0,40.0,-100.00,East,84,6.0,12.0,57,0.00,,,0.07,168.000000,,2013-06-06 00:32:00,
2013-06-05 19:43:00,55.0,40.0,-100.00,East,84,6.0,12.0,57,0.00,,,0.07,168.000000,,2013-06-06 00:43:00,
2013-06-05 19:52:00,55.0,40.0,-100.00,East,84,6.0,12.0,57,0.00,,,0.07,168.000000,,2013-06-06 00:52:00,
2013-06-05 20:02:00,55.0,40.0,-100.00,East,84,6.0,12.0,57,0.00,,,0.07,168.000000,,2013-06-06 01:02:00,
2013-06-05 20:22:00,54.0,40.0,-100.00,East,98,4.0,9.0,58,0.00,,,0.07,143.000000,,2013-06-06 01:22:00,
2013-06-05 20:32:00,54.0,40.0,-100.00,East,98,4.0,9.0,58,0.00,,,0.07,143.000000,,2013-06-06 01:32:00,
2013-06-05 20:42:00,54.0,40.0,-100.00,East,98,4.0,9.0,58,0.00,,,0.07,143.000000,,2013-06-06 01:42:00,
2013-06-05 20:53:00,54.0,40.0,-100.00,East,98,4.0,9.0,58,0.00,,,0.07,143.000000,,2013-06-06 01:53:00,
2013-06-05 21:02:00,54.0,40.0,-100.00,East,98,4.0,9.0,58,0.00,,,0.07,143.000000,,2013-06-06 02:02:00,
2013-06-05 21:22:00,52.0,40.0,-100.00,ENE,63,2.0,8.0,63,0.00,,,0.07,20.000000,,2013-06-06 02:22:00,
2013-06-05 21:32:00,52.0,40.0,-100.00,ENE,63,2.0,8.0,63,0.00,,,0.07,20.000000,,2013-06-06 02:32:00,
2013-06-05 21:42:00,52.0,40.0,-100.00,ENE,63,2.0,8.0,63,0.00,,,0.07,20.000000,,2013-06-06 02:42:00,
2013-06-05 21:52:00,52.0,40.0,-100.00,ENE,63,2.0,8.0,63,0.00,,,0.07,20.000000,,2013-06-06 02:52:00,
2013-06-05 22:02:00,52.0,40.0,-100.00,ENE,63,2.0,8.0,63,0.00,,,0.07,20.000000,,2013-06-06 03:02:00,
2013-06-05 22:22:00,50.0,40.0,-100.00,NNE,22,2.0,4.0,68,0.00,,,0.07,1.000000,,2013-06-06 03:22:00,
2013-06-05 22:33:00,50.0,40.0,-100.00,NNE,22,2.0,4.0,68,0.00,,,0.07,1.000000,,2013-06-06 03:33:00,
2013-06-05 22:43:00,50.0,40.0,-100.00,NNE,22,2.0,4.0,68,0.00,,,0.07,1.000000,,2013-06-06 03:43:00,
2013-06-05 22:53:00,50.0,40.0,-100.00,NNE,22,2.0,4.0,68,0.00,,,0.07,1.000000,,2013-06-06 03:53:00,
2013-06-05 23:03:00,50.0,40.0,-100.00,NNE,22,2.0,4.0,68,0.00,,,0.07,1.000000,,2013-06-06 04:03:00,
2013-06-05 23:23:00,50.0,40.0,-100.00,ENE,68,3.0,6.0,68,0.00,,,0.07,0.000000,,2013-06-06 04:23:00,
2013-06-05 23:33:00,50.0,40.0,-100.00,ENE,68,3.0,6.0,68,0.00,,,0.07,0.000000,,2013-06-06 04:33:00,
2013-06-05 23:42:00,50.0,40.0,-100.00,ENE,68,3.0,6.0,68,0.00,,,0.07,0.000000,,2013-06-06 04:42:00,
2013-06-05 23:53:00,50.0,40.0,-100.00,ENE,68,3.0,6.0,68,0.00,,,0.07,0.000000,,2013-06-06 04:53:00,